STARLINK-5734 (55612 NORAD) Tracking and Keplerian Element Data

This shows tracking and keplerian element data for the satellite.

Feedback or suggestion? Click here.




ElementValue
Catalog55612
NameSTARLINK-5734
Epoch Orbit660
Epoch Day85.25001157
Epoch Year2023
RAAN103.8447
Inclination42.9981
Eccentricity0.0001363
Argument of Perigee268.8864
Mean Anonmoly103.6463
Mean Motion15.48931371
Decay Rate-0.00055748
L11 55612U 23020AV 23085.25001157 -.00055748 00000+0 -10085-2 0 9991
L22 55612 42.9981 103.8447 0001363 268.8864 103.6463 15.48931371 6603



Live tracking and technical data element details for STARLINK-5734 (NORAD 55612). STARLINK-5734 can be tracked NOW for your location showing map with azimuth and elevation plus other details from your city location.







IsCatalogInMostPopularTable: catalog: 55612, numindb: -1

Insert: records affected: 1


GetName: 55612 STARLINK-5734

Hit Count: inserted at: Tue, 28 Mar 2023 03:28:01 GMT